User: anonymous   Login
Location: Équennes
(49.7375°N, 1.9622°E)
Time: 21:15:13
(UTC+00:00)
Language:

GHGSAT-C8 - Orbit

View from above orbital plane
View from above orbital plane
View from above satellite
View from above satellite

Ground track
Ground track

The orbit data is extracted from the following two-line orbital elements,

1 56186U 23054J   24058.48179173  .00007971  00000-0  30067-3 0  9992
2 56186  97.3800 315.0000 0007569 202.0680 158.0234 15.27286924 49078
Epoch (UTC): 27 February 2024 11:33:46
Eccentricity: 0.0007569
inclination: 97.3800°
perigee height: 479 km
apogee height: 489 km
right ascension of ascending node: 315.0000°
argument of perigee: 202.0680°
revolutions per day: 15.27286924
mean anomaly at epoch: 158.0234°
orbit number at epoch: 4907

The dashed part of the orbit path shows where the satellite is in the earth's shadow,  

DLR